Location: Crescent
(42.8242°N, 73.7329°W)
Time: 08:03:38
(UTC+00:00)

Vanguard 1 - Pass Details

Date: 20 February 2026
Orbit: 653 x 3818 km, 34.2° (Epoch: 12 March)

Event Time Altitude Azimuth Distance (km) Brightness Sun altitude
Rises 18:01:21 0° 205° (SSW) 3,865 14.1 35.1°
Reaches altitude 10° 18:04:07 10° 192° (SSW) 3,227 14.1 35.0°
Maximum altitude 18:10:45 26° 138° (SE) 2,936 13.1 34.6°
Drops below altitude 10° 18:21:03 10° 89° (E) 5,179 13.6 34.0°
Sets 18:27:04 0° 80° (E) 6,764 14.1 33.5°
